GW1321 Weather Reports


Display with metric or nautical units.
time (UTC)temp
F
wind
direction
speed
MPH
gust
MPH
rain 1hr
in
rain 24hr
in
rain mn
in
humidity
%
barometer
mb
20260505125027 59 0 0.0 1.0 0.00 0.61 0.61 96 1005.7
20260505124544 59 0 0.0 1.0 0.00 0.61 0.61 95 1005.6
20260505124028 59 0 0.0 1.0 0.00 0.61 0.61 95 1005.6
20260505123528 59 0 0.0 2.0 0.00 0.61 0.61 95 1005.4
20260505123055 59 0 0.0 2.0 0.00 0.61 0.61 95 1005.2
20260505122527 59 0 0.0 1.0 0.00 0.61 0.61 95 1005.2
20260505122027 59 0 0.0 1.0 0.00 0.61 0.61 95 1005.2
20260505121553 59 360 0.0 1.0 0.00 0.61 0.61 95 1005.1
20260505121028 59 0 0.0 2.0 0.00 0.61 0.61 95 1005.0
20260505120527 59 0 0.0 2.0 0.00 0.61 0.61 95 1005.1
20260505120044 59 0 0.0 2.0 0.00 0.61 0.61 95 1005.0
20260505115527 59 0 0.0 1.0 0.00 0.61 0.61 95 1005.1
20260505115028 59 0 0.0 1.0 0.00 0.61 0.61 95 1005.1
20260505114545 59 0 0.0 1.0 0.00 0.61 0.61 95 1004.9
20260505114026 59 0 0.0 1.0 0.01 0.61 0.61 95 1004.7
20260505113526 59 0 0.0 1.0 0.01 0.61 0.61 95 1004.9
20260505113043 59 0 0.0 1.0 0.01 0.61 0.61 95 1005.0
20260505112528 59 0 0.0 1.0 0.01 0.61 0.61 95 1004.9
20260505112028 59 0 0.0 2.0 0.01 0.61 0.61 95 1004.9
20260505111545 59 0 0.0 3.0 0.01 0.61 0.61 95 1005.0
20260505111030 59 360 0.0 3.0 0.02 0.61 0.61 95 1005.1
20260505110527 59 0 0.0 1.0 0.02 0.61 0.61 95 1005.1
20260505102027 59 0 0.0 2.0 0.11 0.60 0.60 95 1006.0
20260505101552 59 0 0.0 2.0 0.10 0.58 0.58 95 1006.2
20260505101028 59 360 0.0 2.0 0.11 0.58 0.58 95 1006.2
20260505100531 59 0 0.0 2.0 0.15 0.58 0.58 95 1006.4
20260505100137 59 0 0.0 1.0 0.16 0.58 0.58 95 1006.2
20260505095528 59 0 0.0 1.0 0.16 0.56 0.56 95 1006.6
20260505095027 59 0 0.0 1.0 0.20 0.56 0.56 95 1006.5
20260505094541 59 0 0.0 1.0 0.20 0.55 0.55 95 1006.2
20260505094027 59 0 0.0 1.0 0.21 0.55 0.55 94 1006.2
20260505093528 59 0 0.0 1.0 0.20 0.54 0.54 95 1005.9
20260505093043 59 360 0.0 1.0 0.19 0.52 0.52 94 1006.5
20260505092528 59 360 0.0 1.0 0.17 0.49 0.49 95 1006.5
20260505092028 59 360 0.0 1.0 0.19 0.49 0.49 94 1006.5
20260505091540 59 360 0.0 2.0 0.20 0.49 0.49 94 1006.2
20260505091030 59 0 0.0 2.0 0.19 0.48 0.48 94 1005.7
20260505090528 59 0 0.0 2.0 0.15 0.43 0.43 94 1005.7
20260505090051 59 0 1.0 2.0 0.18 0.42 0.42 94 1006.4
20260505085527 59 360 0.0 2.0 0.19 0.39 0.39 94 1006.0
20260505085030 59 0 0.0 1.0 0.18 0.35 0.35 94 1005.4
20260505084549 59 0 0.0 2.0 0.25 0.35 0.35 94 1005.4
20260505084029 59 360 0.0 2.0 0.28 0.34 0.34 94 1005.4
20260505083526 59 360 0.0 2.0 0.29 0.34 0.34 94 1006.0
20260505083049 59 0 0.0 1.0 0.29 0.33 0.33 93 1005.6
20260505082530 59 0 0.0 1.0 0.29 0.32 0.32 93 1006.0
20260505082030 59 0 0.0 2.0 0.28 0.30 0.30 93 1006.4
20260505081545 59 0 0.0 2.0 0.27 0.29 0.29 93 1006.2
20260505081034 59 360 1.0 2.0 0.27 0.29 0.29 93 1006.1
20260505080530 59 0 0.0 2.0 0.26 0.27 0.27 92 1006.0
20260505080042 59 360 1.0 2.0 0.23 0.24 0.24 92 1006.1
20260505075532 59 360 0.0 3.0 0.18 0.19 0.19 92 1006.9
20260505075029 59 0 1.0 3.0 0.16 0.17 0.17 92 1006.6
20260505074540 60 0 0.0 3.0 0.09 0.09 0.09 92 1006.9
20260505074026 60 360 1.0 3.0 0.06 0.06 0.06 91 1006.5
20260505073530 60 360 1.0 3.0 0.04 0.04 0.04 91 1006.0
20260505073044 60 360 0.0 2.0 0.04 0.04 0.04 91 1006.1
20260505072531 60 0 0.0 2.0 0.03 0.03 0.03 90 1005.8
20260505072030 60 360 0.0 2.0 0.02 0.02 0.02 89 1005.7
20260505071542 61 0 0.0 0.0 0.02 0.02 0.02 89 1006.0
20260505071030 61 0 0.0 2.0 0.02 0.02 0.02 88 1006.0
20260505070535 61 0 0.0 2.0 0.01 0.01 0.01 87 1006.1
20260505070046 61 0 0.0 2.0 0.01 0.01 0.01 86 1006.2
20260505065531 62 0 0.0 2.0 0.01 0.01 0.01 85 1006.3
20260505065033 63 0 0.0 2.0 0.01 0.01 0.01 82 1005.4
20260505064547 63 360 0.0 1.0 0.00 0.00 0.00 81 1005.4
20260505064030 64 0 0.0 0.0 0.00 0.00 0.00 80 1005.6
20260505063530 64 0 0.0 1.0 0.00 0.00 0.00 77 1005.7
20260505063046 64 0 0.0 2.0 0.00 0.00 0.00 76 1006.0
20260505062533 64 0 0.0 3.0 0.00 0.00 0.00 75 1006.1
20260505062030 64 0 1.0 3.0 0.00 0.00 0.00 75 1006.2
20260505061546 64 360 1.0 3.0 0.00 0.00 0.00 75 1006.3
20260505061032 64 360 1.0 3.0 0.00 0.00 0.00 76 1006.2
20260505060530 64 360 0.0 2.0 0.00 0.00 0.00 76 1006.3
20260505060045 63 0 0.0 1.0 0.00 0.00 0.00 76 1006.3
20260505055533 63 0 0.0 1.0 0.00 0.00 0.00 77 1006.2
20260505055031 63 0 0.0 2.0 0.00 0.00 0.00 76 1006.3
20260505054545 63 0 0.0 2.0 0.00 0.00 0.00 77 1006.2
20260505054033 63 360 0.0 2.0 0.00 0.00 0.00 76 1006.1
20260505053531 63 360 0.0 2.0 0.00 0.00 0.00 76 1006.1
20260505053055 63 0 0.0 2.0 0.00 0.00 0.00 76 1006.0
20260505052531 63 0 0.0 2.0 0.00 0.00 0.00 76 1006.1
20260505052030 63 0 0.0 1.0 0.00 0.00 0.00 76 1006.0
20260505051547 64 0 0.0 1.0 0.00 0.00 0.00 76 1005.8
20260505051030 64 0 0.0 2.0 0.00 0.00 0.00 75 1005.7
20260505050534 64 360 0.0 2.0 0.00 0.00 0.00 75 1005.9
20260505041541 64 0 0.0 2.0 0.00 0.00 0.00 74 1006.7
20260505041029 64 0 0.0 2.0 0.00 0.00 0.00 74 1006.6
20260505040527 64 0 0.0 1.0 0.00 0.00 0.00 74 1006.8
20260505040042 64 0 0.0 1.0 0.00 0.00 0.00 73 1007.0
20260505035530 65 0 0.0 2.0 0.00 0.00 0.00 73 1007.0
20260505035030 65 0 0.0 2.0 0.00 0.00 0.00 73 1006.8
20260505034544 65 127 0.0 2.0 0.00 0.00 0.00 73 1006.9
20260505034030 65 0 0.0 2.0 0.00 0.00 0.00 73 1006.8
20260505033530 65 128 0.0 2.0 0.00 0.00 0.00 73 1007.0
20260505033104 65 0 0.0 2.0 0.00 0.00 0.00 72 1007.0
20260505032530 65 0 0.0 3.0 0.00 0.00 0.00 72 1007.1
20260505032029 65 248 0.0 3.0 0.00 0.00 0.00 72 1007.2
20260505031541 65 0 0.0 1.0 0.00 0.00 0.00 72 1007.1
20260505031029 65 0 0.0 1.0 0.00 0.00 0.00 72 1007.2
20260505030530 65 0 0.0 1.0 0.00 0.00 0.00 72 1007.2
20260505030043 65 0 0.0 1.0 0.00 0.00 0.00 72 1007.2
20260505025531 65 0 0.0 1.0 0.00 0.00 0.00 72 1007.1
20260505025026 66 0 0.0 1.0 0.00 0.00 0.00 71 1007.1
20260505024540 66 0 0.0 1.0 0.00 0.00 0.00 71 1007.1
20260505024027 66 0 0.0 1.0 0.00 0.00 0.00 70 1007.0
20260505023530 66 0 0.0 1.0 0.00 0.00 0.00 70 1007.0
20260505023047 67 0 0.0 1.0 0.00 0.00 0.00 69 1006.9
20260505022530 67 0 0.0 2.0 0.00 0.00 0.00 69 1006.8
20260505022029 67 0 0.0 2.0 0.00 0.00 0.00 69 1006.8
20260505021542 67 0 0.0 2.0 0.00 0.00 0.00 68 1006.8
20260505021033 67 0 0.0 2.0 0.00 0.00 0.00 68 1006.7
20260505020530 68 0 0.0 2.0 0.00 0.00 0.00 67 1006.4
20260505020050 68 256 0.0 2.0 0.00 0.00 0.00 67 1006.5
20260505015530 68 256 0.0 2.0 0.00 0.00 0.00 67 1006.5
20260505015030 68 256 0.0 2.0 0.00 0.00 0.00 66 1006.3
20260505014542 68 360 0.0 3.0 0.00 0.00 0.00 66 1006.2
20260505014033 68 267 0.0 3.0 0.00 0.00 0.00 66 1006.1
20260505013529 68 57 1.0 3.0 0.00 0.00 0.00 65 1006.1
20260505013040 69 0 1.0 2.0 0.00 0.00 0.00 65 1005.9
20260505012532 69 0 0.0 2.0 0.00 0.00 0.00 64 1005.9
20260505012030 69 215 0.0 3.0 0.00 0.00 0.00 64 1005.9
20260505011540 69 0 0.0 3.0 0.00 0.00 0.00 63 1005.8
20260505011030 70 0 0.0 4.0 0.00 0.00 0.00 63 1005.9
20260505010530 70 219 1.0 4.0 0.00 0.00 0.00 62 1005.9
20260505010045 70 222 1.0 4.0 0.00 0.00 0.00 62 1005.7
20260505005530 70 238 1.0 3.0 0.00 0.00 0.00 62 1005.8
20260505005030 70 232 1.0 3.0 0.00 0.00 0.00 61 1005.7
20260505004547 71 232 1.0 4.0 0.00 0.00 0.00 61 1005.8
20260505004030 71 226 1.0 6.0 0.00 0.00 0.00 60 1005.8
20260505003529 71 228 1.0 7.0 0.00 0.00 0.00 60 1005.7
20260505003040 71 229 2.0 7.0 0.00 0.00 0.00 60 1005.7
20260505002530 71 265 2.0 4.0 0.00 0.00 0.00 61 1005.8
20260505002031 72 230 1.0 3.0 0.00 0.00 0.00 61 1005.6
20260505001541 72 212 1.0 3.0 0.00 0.00 0.00 61 1005.5
20260505001034 72 211 1.0 3.0 0.00 0.00 0.00 60 1005.5
20260505000530 73 213 1.0 3.0 0.00 0.00 0.00 60 1005.6
20260505000044 73 180 1.0 3.0 0.00 0.00 0.00 59 1005.5
20260504235530 73 231 1.0 3.0 0.00 0.00 0.00 59 1005.6
20260504235030 73 240 1.0 4.0 0.00 0.00 0.00 59 1005.6
20260504234600 73 250 1.0 4.0 0.00 0.00 0.00 59 1005.5
20260504234032 74 219 2.0 4.0 0.00 0.00 0.00 58 1005.5
20260504233530 74 45 1.0 5.0 0.00 0.00 0.00 58 1005.4
20260504233043 74 225 2.0 5.0 0.00 0.00 0.00 57 1005.4
20260504232530 74 217 1.0 5.0 0.00 0.00 0.00 57 1005.5
20260504232029 74 238 2.0 4.0 0.00 0.00 0.00 56 1005.6
20260504231550 74 266 2.0 4.0 0.00 0.00 0.00 55 1005.5
20260504231032 75 254 1.0 4.0 0.00 0.00 0.00 57 1005.6
20260504230531 75 202 1.0 4.0 0.00 0.00 0.00 56 1005.6
20260504230043 75 360 0.0 4.0 0.00 0.00 0.00 56 1005.5
20260504225532 75 237 2.0 4.0 0.00 0.00 0.00 55 1005.5
20260504225033 75 207 1.0 5.0 0.00 0.00 0.00 56 1005.5
20260504224541 75 256 2.0 5.0 0.00 0.00 0.00 55 1005.6
20260504224030 75 202 2.0 4.0 0.00 0.00 0.00 55 1005.7
20260504223532 75 228 2.0 6.0 0.00 0.00 0.00 54 1005.7
20260504223041 75 223 2.0 6.0 0.00 0.00 0.00 55 1005.8
20260504222530 75 234 2.0 6.0 0.00 0.00 0.00 56 1005.8
20260504222030 76 211 2.0 5.0 0.00 0.00 0.00 54 1005.8
20260504221547 76 219 1.0 6.0 0.00 0.00 0.00 55 1005.9
20260504221032 76 231 2.0 6.0 0.00 0.00 0.00 54 1006.0
20260504220530 76 243 2.0 5.0 0.00 0.00 0.00 55 1006.0
20260504220047 76 269 2.0 7.0 0.00 0.00 0.00 54 1006.1
20260504215529 76 220 3.0 7.0 0.00 0.00 0.00 53 1006.1
20260504215031 76 216 2.0 5.0 0.00 0.00 0.00 52 1006.1
20260504214548 76 252 1.0 5.0 0.00 0.00 0.00 53 1006.1
20260504214032 76 242 2.0 5.0 0.00 0.00 0.00 52 1006.1
20260504213531 76 165 2.0 7.0 0.00 0.00 0.00 54 1006.2
20260504213048 76 198 2.0 7.0 0.00 0.00 0.00 52 1006.3
20260504212531 76 220 3.0 7.0 0.00 0.00 0.00 52 1006.3
20260504212034 76 215 3.0 9.0 0.00 0.00 0.00 51 1006.3
20260504211540 76 246 3.0 9.0 0.00 0.00 0.00 51 1006.4
20260504211030 76 235 3.0 9.0 0.00 0.00 0.00 51 1006.5
20260504210530 76 240 3.0 9.0 0.00 0.00 0.00 50 1006.5
20260504210055 77 254 3.0 9.0 0.00 0.00 0.00 49 1006.6
20260504205531 77 198 3.0 7.0 0.00 0.00 0.00 51 1006.6
20260504205029 77 275 2.0 8.0 0.00 0.00 0.00 50 1006.5
20260504204619 77 240 4.0 8.0 0.00 0.00 0.00 49 1006.7
20260504204030 77 217 3.0 8.0 0.00 0.00 0.00 51 1006.8
20260504203534 77 360 3.0 7.0 0.00 0.00 0.00 50 1006.9
20260504203044 77 259 2.0 8.0 0.00 0.00 0.00 50 1007.0
20260504202531 77 360 3.0 8.0 0.00 0.00 0.00 51 1007.0
20260504202030 78 360 3.0 8.0 0.00 0.00 0.00 50 1007.1
20260504201542 77 360 2.0 8.0 0.00 0.00 0.00 51 1007.0
20260504201030 78 360 3.0 8.0 0.00 0.00 0.00 51 1007.1
20260504200530 78 360 2.0 7.0 0.00 0.00 0.00 52 1007.2
20260504200042 77 360 3.0 8.0 0.00 0.00 0.00 51 1007.3
20260504195530 77 360 4.0 9.0 0.00 0.00 0.00 50 1007.4
20260504195031 78 360 3.0 9.0 0.00 0.00 0.00 51 1007.4
20260504194551 78 360 3.0 11.0 0.00 0.00 0.00 50 1007.5
20260504194031 78 360 2.0 11.0 0.00 0.00 0.00 52 1007.5
20260504193530 78 273 3.0 10.0 0.00 0.00 0.00 52 1007.5
20260504193045 78 256 4.0 10.0 0.00 0.00 0.00 51 1007.6
20260504192531 78 360 3.0 6.0 0.00 0.00 0.00 52 1007.7
20260504192031 78 360 2.0 8.0 0.00 0.00 0.00 52 1007.7
20260504191544 77 273 3.0 8.0 0.00 0.00 0.00 51 1007.8
20260504191033 77 360 3.0 9.0 0.00 0.00 0.00 52 1007.8
20260504190531 77 360 3.0 10.0 0.00 0.00 0.00 52 1007.8
20260504190050 77 360 3.0 10.0 0.00 0.00 0.00 53 1007.8
20260504185530 77 244 3.0 10.0 0.00 0.00 0.00 53 1007.9
20260504185030 77 223 3.0 10.0 0.00 0.00 0.00 53 1007.8
20260504184558 76 208 2.0 9.0 0.00 0.00 0.00 54 1007.9
20260504184030 76 248 4.0 9.0 0.00 0.00 0.00 53 1008.2
20260504183530 75 242 4.0 9.0 0.00 0.00 0.00 55 1008.2
20260504183040 76 201 3.0 9.0 0.00 0.00 0.00 55 1008.1
20260504182532 76 256 3.0 9.0 0.00 0.00 0.00 55 1008.2
20260504182034 75 360 4.0 9.0 0.00 0.00 0.00 55 1008.4
20260504181542 75 227 4.0 9.0 0.00 0.00 0.00 54 1008.5
20260504181030 75 360 4.0 9.0 0.00 0.00 0.00 55 1008.5
20260504180530 75 246 3.0 8.0 0.00 0.00 0.00 55 1008.5
20260504180042 75 360 3.0 8.0 0.00 0.00 0.00 56 1008.3
20260504175531 75 250 3.0 9.0 0.00 0.00 0.00 56 1008.6
20260504175030 74 261 4.0 9.0 0.00 0.00 0.00 54 1008.7
20260504174542 74 242 4.0 11.0 0.00 0.00 0.00 55 1008.8
20260504174031 75 227 5.0 11.0 0.00 0.00 0.00 54 1008.7
20260504173533 75 238 3.0 8.0 0.00 0.00 0.00 55 1008.7
20260504173038 74 283 2.0 8.0 0.00 0.00 0.00 56 1008.7
20260504172530 74 297 3.0 9.0 0.00 0.00 0.00 54 1008.7
20260504172030 74 360 4.0 9.0 0.00 0.00 0.00 54 1008.7
20260504171546 74 252 4.0 9.0 0.00 0.00 0.00 54 1008.7
20260504171031 74 360 2.0 10.0 0.00 0.00 0.00 55 1008.7
20260504170531 74 238 3.0 10.0 0.00 0.00 0.00 52 1008.9
20260504151034 70 255 5.0 9.0 0.00 0.00 0.00 56 1009.7
20260504150530 70 198 3.0 10.0 0.00 0.00 0.00 56 1009.7
20260504141031 67 246 2.0 7.0 0.00 0.00 0.00 60 1010.2
20260504140531 67 198 3.0 6.0 0.00 0.00 0.00 59 1010.3
20260504130530 62 360 1.0 4.0 0.00 0.00 0.00 66 1010.7